Weather in Tyurnyasevo

Russia / Republic of Tatarstan     54°35′19″N   50°35′08″E
temp.,
°C
wind,
m/s
gust,
m/s
humid.,
%
clouds,
%
prec.,
mm/h
press.,
hPa
HPBL,
m
12 april, mon
mon1200:00+8n3595100 0.0 1032107
03:00+7nne3896100 0.0 1033180
06:00+7nne4899100 0.1 1034232
09:00+8ne499897 0.1 1035281
12:00+11ene578699 0.0 1036390
15:00+14ene447997 0.0 1036610
18:00+11ene6989100 0.0 1036297
21:00+8ene489674 0.0 1037198
13 april, tue
tue1300:00+7e379689 0.0 1037153
03:00+6ese359675 0.0 103796
06:00+7ese249457 0.0 103791
09:00+13se357287 0.0 1036377
12:00+16sse456149 0.0 1036792
15:00+18sse455750 0.0 10341040
18:00+15se356874 0.0 103374
21:00+11sse337433 0.0 103343
14 april, wed
wed1400:00+9sse337410 0.0 103331
03:00+8sse237861 0.0 103322
06:00+7se358776 0.0 103295
09:00+12se457178 0.0 1031464
12:00+16se455730 0.0 1030859
15:00+17se45505 0.0 10281063
18:00+14se35650 0.0 102685
21:00+11se34780 0.0 102647
15 april, thu
thu1500:00+10sse33845 0.0 102547
03:00+8sse33820 0.0 102526
06:00+8sse24770 0.0 102483
09:00+13sse35560 0.0 1023419
12:00+17s34480 0.0 1022986
15:00+19ssw45420 0.0 10201615
18:00+16ssw225732 0.0 101912
21:00+13nw11672 0.0 101910
16 april, fri
fri1600:00+11nne11689 0.0 101810
03:00+10nne117228 0.0 101810
06:00+10n11710 0.0 101810
09:00+15n225413 0.0 1017380
12:00+18nnw3543100 0.0 10171737
15:00+18n554147 0.0 10172168
18:00+13nne8116991 0.1 1019736
21:00+7nne7128115 0.1 1021661